Погода в Приозёрном

Россия / Приморский край     44°18′40″N   131°57′57″E
темп.,
°C
ветер,
м/с
пор.,
м/с
влажн.,
%
обл.,
%
осадки,
мм/ч
давл.,
гПа
погр.,
м
9 мая, вс
вс901:00+8зюз5990100 2.8 991507
04:00+7ююз6889100 3.1 992549
07:00+7юз2392100 3.1 993216
10:00+7з4690100 3.8 994515
13:00+8ссз5689100 0.4 996694
16:00+8ссз5889100 0.8 998854
19:00+8сз51191100 0.4 1001585
22:00+8ссз41094100 1.2 1004524
10 мая, пн
пн1001:00+8сз4992100 0.3 1006384
04:00+8сз4109098 0.4 1007476
07:00+8сз4988100 0.0 1009569
10:00+9сз4783100 0.0 10101003
13:00+9сз3682100 0.1 1012720
16:00+9сз4684100 0.4 1012625
19:00+8сз4789100 0.4 1013397
22:00+7ссз3691100 0.6 1015289
11 мая, вт
вт1101:00+7зсз2590100 0.1 1015172
04:00+7сз238998 0.1 1015107
07:00+7с1290100 0.1 101761
10:00+10с227668 0.1 1018690
13:00+14св215874 0.3 10171444
16:00+15ююв115199 0.3 10161455
19:00+14юв345992 0.0 1016437
22:00+7ю61482100 0.0 1018371
12 мая, ср
ср1201:00+6ю81787100 0.0 1018559
04:00+6ю91888100 0.0 1017625
07:00+6ююз91883100 0.0 1017763
10:00+10ююз112072100 0.0 1014999
13:00+11ююз122073100 0.0 10141113
16:00+8ю111992100 2.3 1013866
19:00+8ююз91793100 0.3 1012792
22:00+8ю101994100 0.3 1013632
13 мая, чт
чт1301:00+8ююз9169497 0.0 1012496
04:00+8ююз8149662 0.0 1012354
07:00+8ююз7119492 0.0 1013316
10:00+13ююз687648 0.0 1013447
13:00+18ююз5659100 0.0 1012905
16:00+18ю7862100 0.0 1011535
19:00+14ю61177100 0.0 1011290
22:00+11ю4118573 0.0 1012217